• En España
  • Lista de países
  • Para 7 días
  • Temperatura del agua
  • Mapa Satelital
  • El tiempo en el mapa
  • Informadores
  • user-avatar
    Iniciar sesión

    Tiempo cada hora Strzelewo

    Hoy, 20 Septiembre, Jueves

    Tiempo Temperatura Precipitaciones Viento Presión Humedad
    00:00 +20°C° 0 mm 2 mps 755 mmHg 64%
    01:00 +20°C° 0 mm 2 mps 755 mmHg 67%
    02:00 +20°C° 0 mm 2 mps 755 mmHg 68%
    03:00 +19°C° 0 mm 2 mps 755 mmHg 70%
    04:00 +19°C° 0 mm 3 mps 755 mmHg 71%
    05:00 +19°C° 0 mm 3 mps 755 mmHg 71%
    06:00 +20°C° 0 mm 2 mps 755 mmHg 71%
    07:00 +20°C° 0 mm 2 mps 755 mmHg 67%
    08:00 +23°C° 0 mm 2 mps 755 mmHg 61%
    09:00 +25°C° 0 mm 3 mps 755 mmHg 56%
    10:00 +27°C° 0 mm 3 mps 755 mmHg 51%
    11:00 +28°C° 0 mm 4 mps 755 mmHg 48%
    12:00 +29°C° 0 mm 4 mps 755 mmHg 46%
    13:00 +30°C° 0 mm 5 mps 755 mmHg 42%
    14:00 +30°C° 0 mm 4 mps 755 mmHg 43%
    15:00 +30°C° 0 mm 4 mps 754 mmHg 44%
    16:00 +29°C° 0 mm 4 mps 754 mmHg 45%
    17:00 +28°C° 0 mm 3 mps 754 mmHg 51%
    18:00 +26°C° 0 mm 2 mps 754 mmHg 56%
    19:00 +24°C° 0 mm 1 mps 754 mmHg 61%
    20:00 +24°C° 0 mm 2 mps 754 mmHg 63%
    21:00 +23°C° 0 mm 2 mps 753 mmHg 64%
    22:00 +23°C° 0 mm 2 mps 753 mmHg 65%
    23:00 +21°C° 0 mm 3 mps 753 mmHg 65%

    Mañana, 21 Septiembre, Viernes

    Tiempo Temperatura Precipitaciones Viento Presión Humedad
    00:00 +21°C° 0 mm 3 mps 753 mmHg 66%
    01:00 +21°C° 0 mm 3 mps 753 mmHg 66%
    02:00 +20°C° 0 mm 3 mps 752 mmHg 67%
    03:00 +20°C° 0 mm 3 mps 752 mmHg 67%
    04:00 +20°C° 0 mm 3 mps 752 mmHg 68%
    05:00 +20°C° 0 mm 4 mps 751 mmHg 67%
    06:00 +20°C° 0 mm 4 mps 751 mmHg 67%
    07:00 +21°C° 0 mm 4 mps 751 mmHg 66%
    08:00 +23°C° 0 mm 5 mps 751 mmHg 60%
    09:00 +26°C° 0 mm 6 mps 750 mmHg 55%
    10:00 +27°C° 0 mm 6 mps 750 mmHg 49%
    11:00 +28°C° 0 mm 7 mps 749 mmHg 46%
    12:00 +29°C° 0 mm 7 mps 749 mmHg 43%
    13:00 +30°C° 0 mm 7 mps 748 mmHg 40%
    14:00 +29°C° 0 mm 7 mps 747 mmHg 40%
    15:00 +29°C° 0 mm 7 mps 746 mmHg 40%
    16:00 +29°C° 0 mm 7 mps 746 mmHg 41%
    17:00 +27°C° 0.2 mm 7 mps 746 mmHg 46%
    18:00 +24°C° 0.2 mm 7 mps 746 mmHg 51%
    19:00 +23°C° 0.2 mm 7 mps 747 mmHg 57%
    20:00 +20°C° 0.9 mm 7 mps 747 mmHg 64%
    21:00 +16°C° 0.9 mm 6 mps 748 mmHg 70%
    22:00 +13°C° 0.9 mm 6 mps 749 mmHg 77%
    23:00 +13°C° 0.1 mm 5 mps 750 mmHg 76%

    Pasado mañana, 22 Septiembre, Sábado

    Tiempo Temperatura Precipitaciones Viento Presión Humedad
    00:00 +13°C° 0.1 mm 5 mps 751 mmHg 74%
    01:00 +13°C° 0.1 mm 4 mps 751 mmHg 73%
    02:00 +12°C° 0 mm 5 mps 752 mmHg 72%
    03:00 +12°C° 0 mm 5 mps 752 mmHg 70%
    04:00 +10°C° 0 mm 5 mps 752 mmHg 69%
    05:00 +10°C° 0 mm 5 mps 752 mmHg 68%
    06:00 +10°C° 0 mm 6 mps 753 mmHg 67%
    07:00 +10°C° 0 mm 6 mps 753 mmHg 65%
    08:00 +12°C° 0 mm 7 mps 753 mmHg 62%
    09:00 +14°C° 0 mm 7 mps 753 mmHg 58%
    10:00 +15°C° 0 mm 7 mps 753 mmHg 55%
    11:00 +15°C° 0.1 mm 7 mps 753 mmHg 53%
    12:00 +16°C° 0.1 mm 7 mps 753 mmHg 51%
    13:00 +16°C° 0.1 mm 7 mps 753 mmHg 49%
    14:00 +16°C° 0.1 mm 7 mps 753 mmHg 50%
    15:00 +16°C° 0.1 mm 7 mps 753 mmHg 51%
    16:00 +16°C° 0.1 mm 7 mps 753 mmHg 52%
    17:00 +14°C° 0.2 mm 6 mps 753 mmHg 58%
    18:00 +13°C° 0.2 mm 5 mps 753 mmHg 63%
    19:00 +12°C° 0.2 mm 4 mps 753 mmHg 69%
    20:00 +12°C° 0 mm 4 mps 754 mmHg 70%
    21:00 +11°C° 0 mm 4 mps 754 mmHg 72%
    22:00 +11°C° 0 mm 4 mps 754 mmHg 73%
    23:00 +10°C° 0 mm 5 mps 754 mmHg 73%

    23 Septiembre, Domingo

    Tiempo Temperatura Precipitaciones Viento Presión Humedad
    00:00 +9°C° 0 mm 5 mps 754 mmHg 73%
    01:00 +9°C° 0 mm 5 mps 754 mmHg 73%
    02:00 +9°C° 0 mm 5 mps 754 mmHg 74%
    03:00 +8°C° 0 mm 5 mps 754 mmHg 75%
    04:00 +8°C° 0 mm 5 mps 754 mmHg 77%
    05:00 +8°C° 0 mm 5 mps 754 mmHg 76%
    06:00 +8°C° 0 mm 5 mps 754 mmHg 76%
    07:00 +8°C° 0 mm 5 mps 754 mmHg 76%
    08:00 +10°C° 0 mm 6 mps 754 mmHg 71%
    09:00 +11°C° 0 mm 6 mps 754 mmHg 66%
    10:00 +13°C° 0 mm 6 mps 754 mmHg 61%
    11:00 +14°C° 0 mm 6 mps 754 mmHg 57%
    12:00 +14°C° 0 mm 6 mps 754 mmHg 54%
    13:00 +15°C° 0 mm 6 mps 753 mmHg 50%
    14:00 +15°C° 0 mm 5 mps 753 mmHg 50%
    15:00 +15°C° 0 mm 5 mps 752 mmHg 50%
    16:00 +15°C° 0 mm 4 mps 752 mmHg 50%
    17:00 +14°C° 0.1 mm 3 mps 751 mmHg 56%
    18:00 +14°C° 0.1 mm 2 mps 751 mmHg 62%
    19:00 +13°C° 0.1 mm 2 mps 751 mmHg 68%
    20:00 +12°C° 0.5 mm 2 mps 749 mmHg 73%
    21:00 +12°C° 0.5 mm 2 mps 748 mmHg 78%
    22:00 +10°C° 0.5 mm 2 mps 747 mmHg 82%
    23:00 +10°C° 2.7 mm 4 mps 746 mmHg 85%

    24 Septiembre, Lunes

    Tiempo Temperatura Precipitaciones Viento Presión Humedad
    00:00 +8°C° 2.7 mm 5 mps 744 mmHg 88%
    01:00 +8°C° 2.7 mm 6 mps 742 mmHg 90%
    02:00 +6°C° 3.9 mm 7 mps 741 mmHg 90%
    03:00 +6°C° 3.9 mm 8 mps 740 mmHg 90%
    04:00 +6°C° 3.9 mm 8 mps 739 mmHg 90%
    05:00 +6°C° 2.4 mm 8 mps 740 mmHg 89%
    06:00 +6°C° 2.4 mm 9 mps 741 mmHg 87%
    07:00 +6°C° 2.4 mm 9 mps 743 mmHg 85%
    08:00 +8°C° 0.2 mm 9 mps 745 mmHg 78%
    09:00 +10°C° 0.2 mm 9 mps 746 mmHg 72%
    10:00 +11°C° 0.2 mm 9 mps 748 mmHg 65%
    11:00 +11°C° 0.2 mm 9 mps 750 mmHg 62%
    12:00 +12°C° 0.2 mm 9 mps 751 mmHg 59%
    13:00 +12°C° 0.2 mm 10 mps 752 mmHg 56%
    14:00 +12°C° 0.2 mm 9 mps 753 mmHg 57%
    15:00 +11°C° 0.2 mm 8 mps 754 mmHg 57%
    16:00 +11°C° 0.2 mm 7 mps 755 mmHg 58%
    17:00 +9°C° 0 mm 6 mps 755 mmHg 60%
    18:00 +8°C° 0 mm 5 mps 756 mmHg 62%
    19:00 +8°C° 0 mm 3 mps 757 mmHg 64%
    20:00 +8°C° 0 mm 3 mps 758 mmHg 65%
    21:00 +7°C° 0 mm 4 mps 759 mmHg 66%
    22:00 +6°C° 0 mm 4 mps 760 mmHg 67%
    23:00 +6°C° 0 mm 4 mps 760 mmHg 68%

    25 Septiembre, Martes

    Tiempo Temperatura Precipitaciones Viento Presión Humedad
    00:00 +6°C° 0 mm 4 mps 761 mmHg 68%
    01:00 +6°C° 0 mm 4 mps 761 mmHg 68%
    02:00 +6°C° 0 mm 4 mps 762 mmHg 68%
    03:00 +5°C° 0 mm 4 mps 762 mmHg 68%
    04:00 +5°C° 0 mm 4 mps 763 mmHg 68%
    05:00 +6°C° 0 mm 4 mps 763 mmHg 67%
    06:00 +6°C° 0 mm 4 mps 764 mmHg 66%
    07:00 +6°C° 0 mm 5 mps 765 mmHg 65%
    08:00 +8°C° 0 mm 5 mps 765 mmHg 57%
    09:00 +10°C° 0 mm 5 mps 766 mmHg 49%
    10:00 +13°C° 0 mm 6 mps 766 mmHg 42%
    11:00 +13°C° 0 mm 6 mps 766 mmHg 41%
    12:00 +14°C° 0 mm 6 mps 766 mmHg 40%
    13:00 +14°C° 0 mm 7 mps 767 mmHg 40%
    14:00 +14°C° 0 mm 7 mps 766 mmHg 43%
    15:00 +12°C° 0 mm 7 mps 766 mmHg 46%
    16:00 +12°C° 0 mm 7 mps 766 mmHg 48%
    17:00 +11°C° 0 mm 6 mps 765 mmHg 54%
    18:00 +10°C° 0 mm 6 mps 765 mmHg 60%
    19:00 +10°C° 0 mm 6 mps 765 mmHg 65%
    20:00 +10°C° 0.3 mm 6 mps 765 mmHg 69%
    21:00 +10°C° 0.3 mm 7 mps 764 mmHg 73%
    22:00 +10°C° 0.3 mm 8 mps 764 mmHg 77%
    23:00 +10°C° 0.3 mm 8 mps 764 mmHg 78%
    Mostrar más